TimeMDT,TemperatureF,Dew PointF,Humidity,Sea Level PressureIn,VisibilityMPH,Wind Direction,Wind SpeedMPH,Gust SpeedMPH,PrecipitationIn,Events,Conditions,WindDirDegrees,DateUTC
12:15 AM,48.2,33.8,58,30.08,10.0,West,9.2,-,N/A,,Overcast,270,2013-04-22 06:15:00
12:35 AM,48.2,33.8,58,30.09,10.0,WNW,9.2,-,N/A,,Overcast,300,2013-04-22 06:35:00
12:55 AM,48.2,32.0,54,30.10,10.0,WNW,10.4,-,N/A,,Overcast,300,2013-04-22 06:55:00
1:15 AM,48.2,32.0,54,30.11,10.0,NW,12.7,18.4,N/A,,Overcast,310,2013-04-22 07:15:00
1:55 AM,46.4,32.0,57,30.12,10.0,WNW,12.7,-,N/A,,Overcast,290,2013-04-22 07:55:00
2:15 AM,46.4,32.0,57,30.12,10.0,NW,17.3,23.0,N/A,,Overcast,310,2013-04-22 08:15:00
2:35 AM,44.6,30.2,57,30.12,10.0,NW,19.6,27.6,N/A,,Overcast,310,2013-04-22 08:35:00
2:55 AM,44.6,30.2,57,30.14,10.0,NW,15.0,20.7,N/A,,Overcast,310,2013-04-22 08:55:00
3:15 AM,42.8,28.4,57,30.14,10.0,NW,13.8,20.7,N/A,,Overcast,310,2013-04-22 09:15:00
3:35 AM,42.8,28.4,57,30.14,10.0,NW,13.8,19.6,N/A,,Mostly Cloudy,310,2013-04-22 09:35:00
3:55 AM,42.8,28.4,57,30.14,10.0,NW,12.7,19.6,N/A,,Mostly Cloudy,320,2013-04-22 09:55:00
4:15 AM,42.8,26.6,53,30.15,10.0,NW,15.0,23.0,N/A,,Overcast,320,2013-04-22 10:15:00
4:35 AM,41.0,26.6,57,30.15,10.0,NW,13.8,20.7,N/A,,Overcast,310,2013-04-22 10:35:00
4:55 AM,41.0,26.6,57,30.16,10.0,NW,11.5,16.1,N/A,,Overcast,310,2013-04-22 10:55:00
5:15 AM,41.0,28.4,61,30.17,10.0,NW,15.0,24.2,N/A,,Overcast,310,2013-04-22 11:15:00
5:35 AM,41.0,26.6,57,30.17,10.0,NW,13.8,19.6,N/A,,Overcast,310,2013-04-22 11:35:00
5:55 AM,41.0,28.4,61,30.18,10.0,NW,13.8,23.0,N/A,,Overcast,310,2013-04-22 11:55:00
6:15 AM,41.0,28.4,61,30.19,10.0,NW,16.1,23.0,N/A,,Overcast,320,2013-04-22 12:15:00
6:35 AM,41.0,28.4,61,30.20,10.0,NW,15.0,-,N/A,,Mostly Cloudy,320,2013-04-22 12:35:00
6:55 AM,41.0,28.4,61,30.21,10.0,NW,12.7,20.7,N/A,,Scattered Clouds,320,2013-04-22 12:55:00
7:15 AM,41.0,28.4,61,30.22,10.0,NW,15.0,23.0,N/A,,Clear,320,2013-04-22 13:15:00
7:35 AM,41.0,28.4,61,30.22,10.0,NW,16.1,21.9,N/A,,Clear,310,2013-04-22 13:35:00
7:55 AM,41.0,28.4,61,30.24,10.0,NW,11.5,19.6,N/A,,Clear,320,2013-04-22 13:55:00
8:15 AM,41.0,28.4,61,30.24,10.0,NNW,15.0,21.9,N/A,,Clear,330,2013-04-22 14:15:00
8:35 AM,42.8,28.4,57,30.25,10.0,NNW,13.8,23.0,N/A,,Clear,330,2013-04-22 14:35:00
8:55 AM,44.6,28.4,53,30.25,10.0,NW,20.7,25.3,N/A,,Clear,320,2013-04-22 14:55:00
9:15 AM,44.6,28.4,53,30.26,10.0,NNW,18.4,24.2,N/A,,Clear,330,2013-04-22 15:15:00
9:35 AM,46.4,28.4,50,30.26,10.0,NW,18.4,23.0,N/A,,Clear,320,2013-04-22 15:35:00
9:55 AM,46.4,26.6,46,30.26,10.0,NNW,17.3,26.5,N/A,,Partly Cloudy,330,2013-04-22 15:55:00
10:15 AM,46.4,26.6,46,30.26,10.0,NW,15.0,23.0,N/A,,Scattered Clouds,310,2013-04-22 16:15:00
10:35 AM,48.2,26.6,43,30.26,10.0,NW,15.0,24.2,N/A,,Scattered Clouds,320,2013-04-22 16:35:00
10:55 AM,48.2,24.8,40,30.26,10.0,NNW,16.1,24.2,N/A,,Scattered Clouds,340,2013-04-22 16:55:00
11:15 AM,50.0,23.0,35,30.26,10.0,NNW,13.8,28.8,N/A,,Partly Cloudy,340,2013-04-22 17:15:00
11:35 AM,50.0,23.0,35,30.25,10.0,NNW,18.4,27.6,N/A,,Partly Cloudy,340,2013-04-22 17:35:00
11:55 AM,50.0,19.4,30,30.25,10.0,NW,19.6,28.8,N/A,,Clear,320,2013-04-22 17:55:00
12:15 PM,53.6,15.8,22,30.25,10.0,NNW,17.3,25.3,N/A,,Clear,340,2013-04-22 18:15:00
12:35 PM,53.6,14.0,21,30.24,10.0,NNW,20.7,27.6,N/A,,Clear,330,2013-04-22 18:35:00
12:55 PM,53.6,10.4,18,30.24,10.0,NNW,19.6,27.6,N/A,,Clear,340,2013-04-22 18:55:00
1:15 PM,55.4,8.6,15,30.23,10.0,NNW,23.0,34.5,N/A,,Clear,330,2013-04-22 19:15:00
1:35 PM,53.6,8.6,16,30.23,10.0,NNW,20.7,32.2,N/A,,Clear,340,2013-04-22 19:35:00
1:55 PM,53.6,6.8,15,30.23,10.0,NNW,18.4,28.8,N/A,,Clear,340,2013-04-22 19:55:00
2:15 PM,55.4,6.8,14,30.23,10.0,North,17.3,32.2,N/A,,Clear,350,2013-04-22 20:15:00
2:35 PM,55.4,6.8,14,30.23,10.0,NNW,20.7,29.9,N/A,,Clear,340,2013-04-22 20:35:00
2:55 PM,55.4,10.4,17,30.23,10.0,NW,20.7,29.9,N/A,,Clear,320,2013-04-22 20:55:00
3:15 PM,55.4,10.4,17,30.23,10.0,NW,18.4,29.9,N/A,,Clear,320,2013-04-22 21:15:00
3:35 PM,55.4,10.4,17,30.23,10.0,NNW,15.0,32.2,N/A,,Clear,340,2013-04-22 21:35:00
3:55 PM,55.4,10.4,17,30.23,10.0,NNW,19.6,27.6,N/A,,Clear,340,2013-04-22 21:55:00
4:15 PM,55.4,12.2,18,30.22,10.0,NW,18.4,28.8,N/A,,Clear,320,2013-04-22 22:15:00
4:35 PM,55.4,10.4,17,30.22,10.0,NNW,17.3,26.5,N/A,,Clear,330,2013-04-22 22:35:00
4:55 PM,55.4,12.2,18,30.22,10.0,NNW,18.4,29.9,N/A,,Clear,330,2013-04-22 22:55:00
5:15 PM,55.4,10.4,17,30.22,10.0,NW,17.3,32.2,N/A,,Clear,320,2013-04-22 23:15:00
5:35 PM,55.4,12.2,18,30.22,10.0,NNW,16.1,29.9,N/A,,Clear,330,2013-04-22 23:35:00
5:55 PM,55.4,14.0,20,30.21,10.0,NNW,18.4,24.2,N/A,,Clear,330,2013-04-22 23:55:00
6:15 PM,53.6,12.2,19,30.22,10.0,NNW,19.6,27.6,N/A,,Clear,330,2013-04-23 00:15:00
6:35 PM,53.6,12.2,19,30.22,10.0,NNW,20.7,28.8,N/A,,Clear,340,2013-04-23 00:35:00
6:55 PM,53.6,8.6,16,30.22,10.0,North,16.1,26.5,N/A,,Clear,350,2013-04-23 00:55:00
7:15 PM,53.6,8.6,16,30.23,10.0,NNW,15.0,25.3,N/A,,Clear,340,2013-04-23 01:15:00
7:35 PM,51.8,8.6,18,30.23,10.0,North,13.8,23.0,N/A,,Clear,350,2013-04-23 01:35:00
7:55 PM,50.0,10.4,20,30.24,10.0,North,11.5,21.9,N/A,,Clear,350,2013-04-23 01:55:00
8:15 PM,50.0,10.4,20,30.24,10.0,NNW,12.7,19.6,N/A,,Clear,340,2013-04-23 02:15:00
8:35 PM,48.2,12.2,24,30.25,10.0,NNW,13.8,19.6,N/A,,Clear,330,2013-04-23 02:35:00
8:55 PM,48.2,14.0,25,30.26,10.0,NNW,13.8,19.6,N/A,,Clear,330,2013-04-23 02:55:00
9:15 PM,46.4,15.8,29,30.27,10.0,NNW,15.0,19.6,N/A,,Clear,340,2013-04-23 03:15:00
9:35 PM,46.4,15.8,29,30.27,10.0,NNW,13.8,20.7,N/A,,Clear,330,2013-04-23 03:35:00
9:55 PM,44.6,15.8,31,30.28,10.0,NNW,12.7,17.3,N/A,,Clear,330,2013-04-23 03:55:00
10:15 PM,44.6,15.8,31,30.28,10.0,NNW,11.5,-,N/A,,Clear,340,2013-04-23 04:15:00
10:35 PM,44.6,15.8,31,30.29,10.0,NNW,9.2,-,N/A,,Clear,340,2013-04-23 04:35:00
10:55 PM,44.6,15.8,31,30.29,10.0,North,13.8,19.6,N/A,,Clear,350,2013-04-23 04:55:00
11:15 PM,42.8,15.8,34,30.29,10.0,North,13.8,18.4,N/A,,Clear,350,2013-04-23 05:15:00
11:35 PM,41.0,17.6,39,30.29,10.0,NNW,10.4,17.3,N/A,,Clear,330,2013-04-23 05:35:00
11:55 PM,41.0,17.6,39,30.29,10.0,WNW,10.4,-,N/A,,Clear,300,2013-04-23 05:55:00